[Date Prev][Date Next][Thread Prev][Thread Next] - [Date Index][Thread Index][Author Index]

2 Line ISS Keps 7-4



ISS
1 25544U 98067A   02185.46184347  .00022700  00000-0  29592-3 0  6294
2 25544  51.6386 326.2569 0007726 317.1522 149.0265 15.58587785206720


----
Via the sarex mailing list at AMSAT.ORG courtesy of AMSAT-NA.
To unsubscribe, send "unsubscribe sarex" to Majordomo@amsat.org



AMSAT Top AMSAT Home